Location: Greenspot (historical)
(34.0858°N, 117.1109°W)
Time: 04:37:08
(UTC+00:00)

S3M - Pass Details

Date: 18 April 2024
Orbit: 949 x 1003 km, 83.0° (Epoch: 28 May)

Event Time Altitude Azimuth Distance (km) Brightness Sun altitude
Rises 11:58:27 0° 350° (N) 3,648 7.2 -15.4°
Reaches altitude 10° 12:00:57 10° 348° (NNW) 2,705 6.5 -14.9°
Maximum altitude 12:07:06 69° 267° (W) 1,036 3.9 -13.7°
Drops below altitude 10° 12:13:17 10° 185° (S) 2,727 6.1 -12.6°
Sets 12:15:49 0° 183° (S) 3,679 6.8 -12.1°
